Location: Fort Worth, Tx
(32.7431°N, 97.3695°W)
Time: 00:23:10
(UTC-04:00)

A-11 Canister half - Pass Details

Date: 22 March 2026
Orbit: 1523 x 1685 km, 47.3° (Epoch: 20 April)

Event Time Altitude Azimuth Distance (km) Brightness Sun altitude
Rises 07:13:50 0° 189° (S) 4,921 11.4 -16.8°
Reaches altitude 10° 07:17:45 10° 177° (S) 3,935 11.0 -16.0°
Maximum altitude 07:25:31 26° 126° (SE) 2,870 10.9 -14.4°
Drops below altitude 10° 07:33:11 10° 75° (ENE) 3,896 12.6 -12.8°
Sets 07:36:59 0° 64° (ENE) 4,863 13.2 -12.0°
